This is the latest recevied weather packets stored in our database for station/object SQ3MKP-13. If no packets are shown the sender has not sent any weather packets the latest 10 day(s).
| Time | Temp. | Humidity | Pressure | Rain* | Wind** | Luminosity | Snow |
|---|---|---|---|---|---|---|---|
| 1787816495 | 20° C | 58% | 1012.9 hPa | - | - | 389 W/m² | - |
| 1787816194 | 19.44° C | 59% | 1013 hPa | - | - | 376 W/m² | - |
| 1787815893 | 19.44° C | 60% | 1013 hPa | - | - | 365 W/m² | - |
| 1787815591 | 18.89° C | 61% | 1013 hPa | - | - | 354 W/m² | - |
| 1787815291 | 18.89° C | 61% | 1012.9 hPa | - | - | 341 W/m² | - |
| 1787814993 | 18.89° C | 62% | 1013 hPa | - | - | 323 W/m² | - |
| 1787814688 | 18.89° C | 62% | 1012.9 hPa | - | - | 311 W/m² | - |
| 1787814387 | 18.33° C | 64% | 1013 hPa | - | - | 299 W/m² | - |
| 1787814086 | 17.78° C | 66% | 1012.9 hPa | - | - | 293 W/m² | - |
| 1787813785 | 17.78° C | 65% | 1013 hPa | - | - | 275 W/m² | - |
| 1787813484 | 17.78° C | 65% | 1012.9 hPa | - | - | 262 W/m² | - |
| 1787813183 | 17.78° C | 66% | 1012.9 hPa | - | - | 249 W/m² | - |
| 1787812882 | 17.22° C | 68% | 1012.9 hPa | - | - | 235 W/m² | - |
| 1787812581 | 17.22° C | 68% | 1012.9 hPa | - | - | 223 W/m² | - |
| 1787812279 | 17.22° C | 69% | 1012.9 hPa | - | - | 212 W/m² | - |
| 1787811978 | 16.67° C | 70% | 1012.9 hPa | - | - | 200 W/m² | - |
| 1787811677 | 16.67° C | 71% | 1012.9 hPa | - | - | 158 W/m² | - |
| 1787811376 | 16.67° C | 71% | 1012.8 hPa | - | - | 173 W/m² | - |
| 1787811075 | 16.67° C | 72% | 1012.9 hPa | - | - | 61 W/m² | - |
| 1787810774 | 16.11° C | 72% | 1012.9 hPa | - | - | 59 W/m² | - |
| 1787810472 | 15.56° C | 74% | 1012.8 hPa | - | - | 58 W/m² | - |
| 1787810171 | 15.56° C | 75% | 1012.8 hPa | - | - | 58 W/m² | - |
| 1787809870 | 15° C | 76% | 1012.9 hPa | - | - | 99 W/m² | - |
| 1787809570 | 15° C | 76% | 1012.9 hPa | - | - | 99 W/m² | - |
| 1787809269 | 15° C | 76% | 1012.9 hPa | - | - | 93 W/m² | - |
* Rain since midnight (hover to see other rain measurements)
** Current wind speed in m/s (hover to see current wind gust speed)